パンスターズ彗星

C/2015 X5 ( PanSTARRS )

English version
Home page
Updated on April 13, 2018

---------------------------------------------------------------------

・ プロフィール

発見日 2015年12月6日
発見光度 21.3等
発見者 Pan-STARRS 1 telescope (Haleakala)

・ 写真集

・ 軌道要素

Epoch 2018 Jan. 2.0 TT = JDT 2458120.5
T 2017 Dec. 31.03009 TT                                 MPCW
q   6.8017326            (2000.0)            P               Q
z  -0.0004889      Peri.   27.75239     -0.25135916     +0.67029040
 +/-0.0000007      Node   122.31452     +0.66183181     -0.40736092
e   1.0033257      Incl.  124.29091     +0.70625578     +0.62029659
From 167 observations 2015 Dec. 6-2018 Feb. 8, mean residual 0".5.

・ 光度変化

        m1 = 2.3 + 5 logΔ + 15.0 log r

---------------------------------------------------------------------

軌道要素はM.P.E.C. 2018-D91に掲載されたものです。
光度グラフはComet for Windowsで作成したものです。

---------------------------------------------------------------------

Copyright(C) Seiichi Yoshida (comet@aerith.net). All rights reserved.